Flag for Germany Weather past 2 weeks in Springe, Lower Saxony, Germany

Now
50 °F

Drizzle. Fog.


Feels Like: 44 °F
Forecast: 48 / 50 °F
Wind: 17 mph from Southwest

Location: Wunstorf Airport

Current Time: Dec 22, 2014 at 6:15:22 PM

Latest Report: Dec 22, 2014 at 5:20 PM


Visibility: 2 mi

Pressure: 29.89 "Hg

Humidity: 94%

Dew point: 48 °F

Location of SpringeLocation

Historic Weather in Springe — Graph

°F

Springe temperature yesterday

Maximum temperature yesterday: 46 °F (at 10:20 PM)
Minimum temperature yesterday: 39 °F (at 7:20 AM)
Average temperature yesterday: 43 °F

Past Weeks' High & Low Weather Summary

 TemperatureHumidityPressure
High54 °F (Dec 18, 5:20 PM)100% (Dec 14, 7:20 AM)30.33 "Hg (Dec 14, 7:20 AM)
Low30 °F (Dec 14, 7:20 PM)66% (Dec 7, 4:20 PM)29.30 "Hg (Dec 12, 2:20 PM)
Average42 °F87%29.87 "Hg
* Reported Dec 7 4:20 PM — Dec 22 4:20 PM, Springe, Weather by CustomWeather, © 2014

Note: Actual official high and low records may vary slightly from our data, if they occured in-between our weather recording intervals... More about our weather records

Advertising

Springe weather history for previous 24 hours

 ConditionsComfort  
Time TempWeatherWind HumidityBarometerVisibility
4:20 PM
Dec 22
50 °FDrizzle. Fog.21 mph94%29.86 "Hg2 mi
3:20 PM50 °FDrizzle. Fog.23 mph94%29.86 "Hg3 mi
2:54 PM50 °FDrizzle. Fog.24 mph88%29.86 "Hg3 mi
2:20 PM50 °FDrizzle. Mostly cloudy.24 mph88%29.86 "HgN/A
1:20 PM50 °FDrizzle. Mostly cloudy.24 mph88%29.86 "Hg4 mi
12:20 PM50 °FDrizzle. Mostly cloudy.24 mph88%29.86 "HgN/A
11:20 AM50 °FDrizzle. Mostly cloudy.25 mph88%29.86 "Hg4 mi
10:20 AM48 °FDrizzle. Mostly cloudy.23 mph94%29.86 "Hg4 mi
9:20 AM48 °FDrizzle. Mostly cloudy.23 mph94%29.89 "HgN/A
9:02 AM48 °FDrizzle. Mostly cloudy.22 mph94%29.89 "Hg5 mi
8:20 AM48 °FDrizzle. Mostly cloudy.21 mph94%29.89 "Hg4 mi
7:20 AM48 °FDrizzle. Low clouds.21 mph94%29.89 "Hg5 mi
6:20 AM48 °FPassing clouds.24 mph87%29.89 "HgN/A
5:20 AM48 °FPassing clouds.23 mph87%29.92 "HgN/A
4:20 AM48 °FCool.23 mph87%29.92 "Hg4 mi
3:20 AM48 °FCool.22 mph87%29.95 "Hg4 mi
2:20 AM48 °FCool.28 mph87%29.95 "Hg4 mi
1:20 AM48 °FCool.23 mph82%29.98 "Hg4 mi
12:20 AM46 °FCool.23 mph87%30.01 "Hg4 mi
11:20 PM
Dec 21
46 °FCool.23 mph87%30.01 "Hg4 mi
10:20 PM46 °FCool.20 mph82%30.04 "Hg5 mi
9:20 PM45 °FQuite cool.21 mph87%30.07 "Hg4 mi
8:20 PM45 °FQuite cool.20 mph87%30.09 "Hg4 mi
7:20 PM45 °FQuite cool.20 mph87%30.09 "Hg4 mi
6:20 PM45 °FQuite cool.18 mph81%30.09 "Hg4 mi
Weather by CustomWeather, © 2014

See weather overviewHow to use our weather pages